Regional Weather Roundup
Issued by NWS Boston, MA

Home | Current Version | Previous Version | Text Only | Print | Product List | Glossary On
Versions: 1 2 3 4 5 6 7 8 9 10 11 12 13 14 15 16 17 18 19 20 21 22 23 24 25 26 27 28
000
ASUS41 KBOX 251110
RWRBOX

REGIONAL WEATHER ROUNDUP
NATIONAL WEATHER SERVICE TAUNTON MA
700 AM EDT SUN SEP 25 2016

NOTE:  "FAIR" INDICATES FEW OR NO CLOUDS BELOW 12,000 FEET WITH NO
SIGNIFICANT WEATHER AND/OR OBSTRUCTIONS TO VISIBILITY.

MAZALL-251200-
EASTERN MASSACHUSETTS

CITY           SKY/WX    TMP DP  RH WIND       PRES   REMARKS
BOSTON         CLEAR     49  37  63 NW12      30.14R
BEVERLY        CLEAR     44  38  79 NW6       30.13R
LAWRENCE       PTCLDY    45  37  73 W3        30.15R
BEDFORD        PTCLDY    43  34  70 W7        30.14R
BLUE HILL      NOT AVBL
NORWOOD        CLEAR     46  36  68 NW6       30.13R
MARSHFIELD     CLEAR     50  37  62 VRB7G13   30.12R
PLYMOUTH       CLEAR     44  37  76 NW5       30.13R
TAUNTON        CLEAR     35  34  96 CALM      30.13R
NEW BEDFORD    CLEAR     45  37  73 CALM      30.12R
$$

MAZALL-251200-
CAPE COD AND THE ISLANDS

CITY           SKY/WX    TMP DP  RH WIND       PRES   REMARKS
FALMOUTH       CLEAR     45  39  81 NW5       30.10S
HYANNIS        PTCLDY    55  40  56 N12       30.09R
CHATHAM        PTCLDY    53  39  59 CALM      30.10R
PROVINCETOWN   CLEAR     54  40  59 N15G24    30.10R
NANTUCKET      PTCLDY    55  39  54 N10       30.10R
MARTHAS VNYRD  CLEAR     49  41  74 N6        30.12R
$$

MAZALL-251200-
CENTRAL AND WESTERN MASSACHUSETTS

CITY           SKY/WX    TMP DP  RH WIND       PRES   REMARKS
WORCESTER      CLEAR     44  33  65 NW6       30.15R
FITCHBURG      CLEAR     44  37  76 NW7       30.17R
ORANGE         FOG       34  34 100 CALM      30.17S VSB 1/4
SPRINGFIELD    CLEAR     33  32  95 CALM      30.16R
WESTFIELD      PTCLDY    37  36  96 CALM      30.18R
NORTH ADAMS    FOG       38  37  97 CALM      30.21R VSB 1/4
PITTSFIELD     CLEAR     36  33  89 CALM      30.17S
$$

RIZALL-251200-
RHODE ISLAND

CITY           SKY/WX    TMP DP  RH WIND       PRES   REMARKS
PROVIDENCE     CLEAR     50  36  58 NW8       30.15R
NEWPORT        CLEAR     50  38  63 NW9       30.13R
BLOCK ISLAND   CLEAR     53  40  61 N10G17    30.15R
SMITHFIELD     CLEAR     41  37  86 CALM      30.14S
WESTERLY       CLEAR     47  40  76 NW5       30.16R
$$

CTZALL-251200-
CONNECTICUT

CITY           SKY/WX    TMP DP  RH WIND       PRES   REMARKS
BRADLEY INTL   CLEAR     42  38  85 CALM      30.18R
HARTFORD       CLEAR     42  41  96 CALM      30.18R
BRIDGEPORT     CLEAR     52  40  63 NW5       30.18R
DANBURY        CLEAR     39  37  92 SW3       30.20R
GROTON         CLEAR     46  40  79 N5        30.16R
NEW HAVEN      CLEAR     46  39  76 CALM      30.18R
CHESTER        FAIR      46  41  81 CALM      30.17R
MERIDEN        CLEAR     42  38  85 CALM      30.18R
WILLIMANTIC    FOG       41  41 100 CALM      30.18R VSB<1/4
OXFORD         CLEAR     46  36  66 N7        30.20R
$$

MEZ002-015-021-024-NHZ003-005-008-011-012-014-VTZ005-008-251200-
NORTHERN NEW ENGLAND

CITY           SKY/WX    TMP DP  RH WIND       PRES   REMARKS
PORTLAND ME    CLEAR     46  34  62 W7        30.10R
BANGOR ME      PTCLDY    40  35  83 NW3       30.02S
CONCORD NH     CLEAR     34  31  88 CALM      30.14S
MANCHESTER NH  PTCLDY    46  35  65 CALM      30.13R
NASHUA NH      PTCLDY    40  37  89 NW8       30.16R
PORTSMOUTH NH  PTCLDY    43  36  74 W7        30.11R
JAFFREY NH     CLEAR     37  34  89 CALM      30.16R
KEENE NH       FOG       36  36 100 CALM      30.19R VSB 1/4
BURLINGTON VT  PTCLDY    38  34  85 CALM      30.20R
MT. WASHINGTON FOG       23  23 100 NW62G70     N/A  VSB 1/16WCI   0
$$

NYZ052-076-251200-
EASTERN NEW YORK

CITY           SKY/WX    TMP DP  RH WIND       PRES   REMARKS
ALBANY         PTCLDY    41  38  89 CALM      30.22R
NEW YORK CITY  CLEAR     58  42  55 N6        30.18R
$$

ANZALL-251200-
MARINE OBSERVATIONS

STATION/POSITION TIME  TEMP    WIND        PRES    VSBY  WAVE
                       AIR SEA DIR/SP/G                  HT/PER
                 (UTC) (F)     (DEG/KT/KT) (MB)    (MI)  (FT/S)
BOSTON BUOY      1050   53 64  330/ 17/ 21 1018.7R         4/ 6
BUZZARDS BAY     1000   54     350/ 21/ 23 1020.1R
NANTUCKET SOUND  1050   58 69  340/ 17/ 21 1018.7R         3/ 4
MASS BAY-STELLWA 1004   53 61  320/ 17/ 19 1018.6R  1 7/8  4/ 5
ISLE OF SHOALS   1100   49     310/ 17/ 18 1019.4R
S OF BLOCK IS    1025      66                N/A           5/ 5
$$

......................KEY.........................
  SKY/WX - SKY CONDITION/PRESENT WEATHER
  TMP    - TEMPERATURE IN FAHRENHEIT
  DWPT   - DEWPOINT IN FAHRENHEIT
  RH     - RELATIVE HUMIDITY IN PERCENT
  WIND   - DIRECTION AND SPEED IN MPH
  PRES   - MEAN SEA LEVEL PRESSURE IN INCHES OF HG
  WCI    - WIND CHILL INDEX
  VSB    - VISIBILITY IN MILES
  HX     - HEAT INDEX
  TC     - TEMPERATURE IN CELSIUS
  VRB    - VARIABLE WIND DIRECTION
  N/A    - NOT AVAILABLE




USA.gov is the U.S. government's official web portal to all federal, state and local government web resources and services.